Regional Weather Roundup
Issued by NWS

Home | Current Version | Previous Version | Text Only | Print | Product List | Glossary Off
Versions: 1 2 3 4 5 6 7 8 9 10 11 12 13 14 15 16 17 18 19 20 21 22 23 24 25 26 27 28 29 30 31 32 33 34 35 36 37 38 39 40 41 42 43 44 45 46 47 48 49 50

000
ASUS45 KBOI 152210
RWRID
WEATHER ROUNDUP FOR IDAHO
NATIONAL WEATHER SERVICE BOISE ID
400 PM MDT MON SEP 15 2014

NOTE: "FAIR" INDICATES FEW OR NO CLOUDS BELOW 12000 FEET
WITH NO SIGNIFICANT WEATHER AND/OR OBSTRUCTIONS TO VISIBILITY

IDZ012-014-152300-
SOUTHWEST IDAHO


CITY           SKY/WX    TMP DP  RH WIND       PRES   REMARKS
BOISE          SUNNY     91  33  12 CALM      29.96F
CALDWELL       SUNNY     86  43  22 E3        29.97F
MOUNTAIN HOME  MOSUNNY   90  32  12 N3        29.97F
$$

IDZ016-017-152300-
SOUTHCENTRAL IDAHO


CITY           SKY/WX    TMP DP  RH WIND       PRES   REMARKS
BURLEY         SUNNY     87  37  17 N3        30.05F
JEROME         SUNNY     85  36  17 NW3       30.06F
TWIN FALLS     SUNNY     89  38  16 N8        30.06F
$$

IDZ019>023-152300-
SOUTHEAST IDAHO


CITY           SKY/WX    TMP DP  RH WIND       PRES   REMARKS
IDAHO FALLS    MOSUNNY   84  32  15 VRB6      30.11F
POCATELLO      MOSUNNY   87  26  11 W10       30.10F
REXBURG        MOSUNNY   81  29  15 SW13      30.11F HAZE
$$

IDZ006-010-011-018-031-032-152300-
CENTRAL IDAHO MOUNTAINS


CITY           SKY/WX    TMP DP  RH WIND       PRES   REMARKS
MCCALL         SUNNY     81  28  14 MISG      30.08F
HAILEY         MOSUNNY   82  37  20 S7        30.14F
STANLEY          N/A     77  27  15 S6        30.21F
SALMON         SUNNY     79  30  17 SW5       30.04F
CHALLIS        SUNNY     80  25  13 CALM      30.10F
$$

IDZ002-004-006-007-026-152300-
NORTHERN IDAHO


CITY           SKY/WX    TMP DP  RH WIND       PRES   REMARKS
LEWISTON       SUNNY     84  34  16 W5        29.90F
LOWELL           N/A     81  48  31 CALM      29.90F
COEUR D`ALENE  SUNNY     82  34  17 NE3       29.96F
MULLAN PASS    SUNNY     70  24  17 VRB3      30.17F
$$



USA.gov is the U.S. government's official web portal to all federal, state and local government web resources and services.